Home   Weather   Youngstown   Past weeks

Flag for USA Past Weather in Youngstown, Ohio, USA — Yesterday and Last 2 Weeks

Now
56 °F

Passing clouds.


Feels Like: 54 °F
Forecast: 53 / 74 °F
Wind: 8 mph from Southeast

Location: Youngstown-Warren Regional Airport

Current Time: Sep 26, 2016 at 3:15:37 AM

Latest Report: Sep 26, 2016 at 2:51 AM


Visibility: 10 mi

Pressure: 30.03 "Hg

Humidity: 70%

Dew Point: 46 °F

Location of YoungstownLocation

Past Weather in Youngstown — Graph

°F

Youngstown Temperature Yesterday

Maximum temperature yesterday: 72 °F (at 4:51 PM)
Minimum temperature yesterday: 46 °F (at 5:51 AM)
Average temperature yesterday: 58 °F

High & Low Weather Summary for the Past Weeks

 TemperatureHumidityPressure
High86 °F (Sep 23, 3:51 PM)100% (Sep 19, 7:54 AM)30.31 "Hg (Sep 19, 7:54 AM)
Low46 °F (Sep 25, 5:51 AM)35% (Sep 25, 4:51 PM)29.94 "Hg (Sep 17, 3:51 PM)
Average66 °F75%30.12 "Hg
* Reported Sep 11 1:51 AM — Sep 26 1:51 AM, Youngstown, Weather by CustomWeather, © 2016

Note: Actual official high and low records may vary slightly from our data, if they occured in-between our weather recording intervals... More about our weather records

Advertising

Youngstown Weather History for the Previous 24 Hours

Scroll right to see more
 ConditionsComfort  
Time TempWeatherWind HumidityBarometerVisibility
1:51 AM
Mon, Sep 26
57 °FPassing clouds.9 mph67%30.04 "Hg10 mi
12:51 AM56 °FPassing clouds.8 mph70%30.05 "Hg10 mi
11:51 PM
Sun, Sep 25
56 °FPassing clouds.8 mph72%30.06 "Hg10 mi
10:51 PM56 °FPassing clouds.8 mph72%30.08 "Hg10 mi
9:51 PM57 °FPassing clouds.8 mph72%30.10 "Hg10 mi
8:51 PM56 °FPassing clouds.7 mph75%30.11 "Hg10 mi
7:51 PM58 °FPassing clouds.6 mph75%30.11 "Hg10 mi
6:51 PM65 °FPartly sunny.3 mph61%30.12 "Hg10 mi
5:51 PM71 °FPartly sunny.5 mph39%30.11 "Hg10 mi
4:51 PM72 °FPartly sunny.No wind35%30.12 "Hg10 mi
3:51 PM70 °FPartly sunny.No wind38%30.14 "Hg10 mi
2:51 PM70 °FPartly sunny.5 mph37%30.15 "Hg10 mi
1:51 PM70 °FPartly sunny.7 mph39%30.16 "Hg10 mi
12:51 PM68 °FScattered clouds.5 mph45%30.18 "Hg10 mi
11:51 AM64 °FScattered clouds.3 mph56%30.21 "Hg10 mi
10:51 AM61 °FScattered clouds.6 mph62%30.22 "Hg10 mi
9:51 AM57 °FScattered clouds.6 mph67%30.22 "Hg10 mi
8:51 AM52 °FPassing clouds.9 mph77%30.22 "Hg10 mi
7:51 AM48 °FPassing clouds.7 mph86%30.21 "Hg10 mi
6:51 AM47 °FClear.7 mph86%30.21 "Hg10 mi
5:51 AM46 °FClear.6 mph89%30.21 "Hg10 mi
4:51 AM48 °FClear.7 mph83%30.21 "Hg10 mi
3:51 AM49 °FClear.8 mph84%30.21 "Hg10 mi
Weather by CustomWeather, © 2016

See weather overviewHow to use our weather pages